period_start,C,m1,H,J0,J1,J2,J3,J4,J5,JA,JB,JC,JD,JJ,JK,JN,#
2013-09-28 00:00:47,0.00,0.54,0.00,24.21,28.67,30.98,6.03,30.63,1015.69,2043.33,3257.90,3182.99,3443.91,350.54,322.92,30.42,0000 0000 0000 0000 000000
2013-09-28 00:01:47,0.07,0.54,0.00,24.21,28.67,30.96,5.85,30.67,1015.77,2043.27,3257.89,3182.99,3443.83,349.10,321.54,30.43,0000 0000 0000 0000 000000
2013-09-28 00:02:47,-0.02,0.54,0.00,24.21,28.67,30.91,5.90,30.67,1015.79,2043.19,3257.88,3182.98,3443.76,350.07,322.56,30.44,0000 0000 0000 0000 000000
2013-09-28 00:03:48,-0.09,0.54,0.00,24.21,28.67,30.90,5.97,30.46,1015.79,2043.15,3257.92,3182.98,3443.70,350.67,323.00,30.44,0000 0000 0000 0000 000000
2013-09-28 00:04:48,-0.02,0.54,0.00,24.21,28.67,30.93,5.95,30.38,1015.83,2043.13,3257.89,3182.99,3443.57,349.75,322.17,30.45,0000 0000 0000 0000 000000
2013-09-28 00:05:48,0.02,0.54,0.00,24.22,28.67,30.93,6.04,30.67,1015.91,2043.18,3257.92,3182.98,3443.70,350.50,322.87,30.45,0000 0000 0000 0000 000000
2013-09-28 00:06:48,0.01,0.54,0.00,24.22,28.67,30.91,5.98,30.46,1015.92,2043.30,3257.90,3182.99,3443.76,350.13,322.53,30.46,0000 0000 0000 0000 000000
2013-09-28 00:07:48,0.12,0.54,0.00,24.22,28.67,30.90,6.03,30.63,1015.92,2043.37,3257.87,3182.99,3443.80,349.75,322.38,30.47,0000 0000 0000 0000 000000
2013-09-28 00:08:49,-0.00,0.54,0.00,24.23,28.67,30.92,6.01,30.63,1015.90,2043.35,3257.87,3182.98,3443.82,350.13,322.52,30.47,0000 0000 0000 0000 000000
2013-09-28 00:09:49,0.01,0.54,0.00,24.25,28.67,30.90,6.13,30.79,1015.93,2043.34,3257.75,3182.99,3443.81,350.71,323.03,30.48,0000 0000 0000 0000 000000
2013-09-28 00:10:49,-0.01,0.54,0.00,24.25,28.67,30.92,5.83,30.42,1016.00,2043.33,3257.68,3182.98,3443.71,349.81,322.22,30.48,0000 0000 0000 0000 000000
2013-09-28 00:11:49,0.01,0.54,0.00,24.25,28.67,30.94,6.08,30.67,1015.95,2043.41,3257.70,3182.99,3443.72,350.69,323.03,30.49,0000 0000 0000 0000 000000
2013-09-28 00:12:50,0.06,0.54,0.00,24.26,28.67,30.90,6.03,30.54,1015.99,2043.33,3257.72,3182.98,3443.74,349.76,322.18,30.49,0000 0000 0000 0000 000000
2013-09-28 00:13:50,-0.08,0.54,0.00,24.26,28.67,30.89,5.98,30.33,1015.99,2043.30,3257.64,3182.97,3443.56,349.30,321.75,30.50,0000 0000 0000 0000 000000
2013-09-28 00:14:50,0.04,0.54,0.00,24.28,28.67,30.90,6.12,30.67,1015.99,2043.35,3257.55,3182.97,3443.53,350.28,322.64,30.51,0000 0000 0000 0000 000000
2013-09-28 00:15:50,0.04,0.54,0.00,24.29,28.67,30.88,6.05,30.75,1016.01,2043.27,3257.42,3182.98,3443.38,350.75,323.06,30.51,0000 0000 0000 0000 000000
2013-09-28 00:16:51,-0.00,0.54,0.00,24.30,28.67,30.88,5.95,30.63,1016.01,2043.18,3257.35,3182.95,3443.21,349.68,321.70,30.52,0000 0000 0000 0000 000000
2013-09-28 00:17:51,-0.04,0.54,0.00,24.29,28.67,30.88,5.96,30.79,1016.07,2043.12,3257.24,3182.92,3443.14,349.80,322.21,30.52,0000 0000 0000 0000 000000
2013-09-28 00:18:51,-0.02,0.54,0.00,24.30,28.67,30.88,6.13,30.71,1016.05,2043.13,3257.24,3182.93,3443.17,350.46,322.80,30.53,0000 0000 0000 0000 000000
2013-09-28 00:19:51,-0.01,0.54,0.00,24.29,28.67,30.88,5.77,30.71,1016.03,2043.16,3257.15,3182.91,3443.12,349.36,321.48,30.54,0000 0000 0000 0000 000000
2013-09-28 00:20:52,0.07,0.54,0.00,24.27,28.67,30.87,5.98,30.63,1016.02,2043.14,3257.14,3182.91,3443.11,350.48,322.83,30.54,0000 0000 0000 0000 000000
2013-09-28 00:21:52,-0.01,0.54,0.00,24.27,28.67,30.88,6.02,30.54,1016.03,2043.18,3257.16,3182.89,3443.09,349.84,321.65,30.55,0000 0000 0000 0000 000000
2013-09-28 00:22:52,0.02,0.54,0.00,24.27,28.67,30.89,5.99,30.75,1015.98,2043.23,3257.16,3182.91,3443.13,349.59,321.83,30.55,0000 0000 0000 0000 000000
2013-09-28 00:23:52,0.02,0.54,0.00,24.29,28.67,30.86,5.89,30.67,1015.93,2043.33,3257.15,3182.95,3443.17,349.29,321.21,30.56,0000 0000 0000 0000 000000
2013-09-28 00:24:53,0.09,0.54,0.00,24.27,28.67,30.86,5.94,30.71,1016.00,2043.37,3257.13,3182.96,3443.10,349.99,322.37,30.56,0000 0000 0000 0000 000000
2013-09-28 00:25:53,0.03,0.54,0.00,24.27,28.67,30.88,5.98,30.63,1016.01,2043.33,3257.08,3182.93,3443.07,350.30,322.67,30.57,0000 0000 0000 0000 000000
2013-09-28 00:26:53,0.00,0.54,0.00,24.27,28.67,30.89,5.98,30.67,1015.95,2043.40,3257.06,3182.90,3443.04,350.84,323.14,30.58,0000 0000 0000 0000 000000
2013-09-28 00:27:54,0.07,0.55,0.00,24.29,28.67,30.86,5.88,30.42,1015.97,2043.36,3257.04,3182.92,3443.02,349.27,321.68,30.58,0000 0000 0000 0000 000000
2013-09-28 00:28:54,-0.05,0.55,0.00,24.30,28.67,30.89,5.99,30.67,1015.93,2043.41,3257.01,3182.87,3443.01,350.48,322.78,30.59,0000 0000 0000 0000 000000
2013-09-28 00:29:54,0.08,0.55,0.00,24.30,28.67,30.89,6.02,30.75,1015.90,2043.36,3257.00,3182.68,3443.03,350.10,322.42,30.59,0000 0000 0000 0000 000000
2013-09-28 00:30:54,0.00,0.55,0.00,24.29,28.67,30.90,5.97,30.79,1015.86,2043.25,3257.00,3182.51,3443.02,350.24,322.16,30.60,0000 0000 0000 0000 000000
2013-09-28 00:31:55,-0.08,0.55,0.00,24.27,28.67,30.88,6.05,30.75,1015.79,2043.27,3257.00,3182.58,3443.02,349.82,322.08,30.61,0000 0000 0000 0000 000000
2013-09-28 00:32:55,0.03,0.55,0.00,24.24,28.68,30.88,6.01,30.71,1015.72,2043.40,3257.01,3182.66,3443.00,349.89,322.22,30.61,0000 0000 0000 0000 000000
2013-09-28 00:33:55,0.07,0.55,0.00,24.21,28.68,30.87,5.94,30.71,1015.74,2043.38,3257.00,3182.65,3443.00,349.32,321.74,30.62,0000 0000 0000 0000 000000
2013-09-28 00:34:55,-0.01,0.55,0.00,24.19,28.68,30.87,5.96,30.92,1015.69,2043.33,3257.00,3182.57,3443.00,349.79,322.60,30.62,0000 0000 0000 0000 000000
2013-09-28 00:35:55,-0.05,0.55,0.00,24.19,28.68,30.87,6.01,30.75,1015.67,2043.20,3257.00,3182.32,3443.00,350.17,322.84,30.63,0000 0000 0000 0000 000000
2013-09-28 00:36:55,-0.02,0.55,0.00,24.20,28.68,30.88,6.04,30.79,1015.67,2043.14,3257.00,3182.24,3443.00,349.57,321.96,30.63,0000 0000 0000 0000 000000
2013-09-28 00:37:56,-0.03,0.54,0.00,24.19,28.68,30.88,5.98,30.54,1015.67,2043.16,3257.00,3182.26,3443.01,349.62,322.34,30.64,0000 0000 0000 0000 000000
2013-09-28 00:38:56,0.03,0.55,0.00,24.20,28.68,30.91,6.22,30.79,1015.68,2043.17,3257.00,3182.20,3443.00,350.30,322.73,30.65,0000 0000 0000 0000 000000
2013-09-28 00:39:56,0.02,0.55,0.00,24.18,28.68,30.89,6.02,30.58,1015.65,2043.21,3257.00,3182.17,3443.00,349.91,322.29,30.65,0000 0000 0000 0000 000000
2013-09-28 00:40:56,0.02,0.55,0.00,24.18,28.69,30.90,5.88,30.79,1015.68,2043.29,3257.00,3182.20,3443.00,349.49,322.15,30.66,0000 0000 0000 0000 000000
2013-09-28 00:41:57,0.06,0.55,0.00,24.18,28.69,30.89,6.07,30.96,1015.67,2043.27,3257.00,3182.20,3443.00,349.85,322.33,30.66,0000 0000 0000 0000 000000
2013-09-28 00:42:57,-0.05,0.55,0.00,24.20,28.69,30.91,5.74,30.88,1015.67,2043.29,3257.00,3182.16,3443.00,349.72,321.78,30.67,0000 0000 0000 0000 000000
2013-09-28 00:43:57,0.06,0.55,0.00,24.19,28.69,30.90,6.21,30.96,1015.66,2043.31,3257.00,3182.11,3443.00,351.14,323.62,30.68,0000 0000 0000 0000 000000
2013-09-28 00:44:57,0.01,0.55,0.00,24.19,28.69,30.89,5.92,30.79,1015.65,2043.27,3256.99,3182.12,3443.00,350.10,322.65,30.68,0000 0000 0000 0000 000000
2013-09-28 00:45:57,-0.02,0.55,0.00,24.17,28.70,30.91,5.96,30.79,1015.64,2043.22,3256.99,3182.09,3443.00,349.69,322.10,30.69,0000 0000 0000 0000 000000
2013-09-28 00:46:58,-0.06,0.55,0.00,24.18,28.70,30.93,6.02,30.96,1015.65,2043.26,3256.99,3182.09,3443.00,350.34,322.48,30.69,0000 0000 0000 0000 000000
2013-09-28 00:47:58,0.07,0.55,0.00,24.18,28.70,30.92,6.08,30.79,1015.64,2043.32,3256.99,3182.12,3443.00,349.74,322.16,30.70,0000 0000 0000 0000 000000
2013-09-28 00:48:58,0.00,0.55,0.00,24.19,28.70,30.91,6.07,30.71,1015.65,2043.40,3256.98,3182.16,3443.00,351.28,323.54,30.71,0000 0000 0000 0000 000000
2013-09-28 00:49:58,0.06,0.55,0.00,24.20,28.70,30.90,6.07,30.83,1015.65,2043.40,3256.97,3182.16,3443.00,350.56,322.87,30.71,0000 0000 0000 0000 000000
2013-09-28 00:50:59,0.02,0.55,0.00,24.19,28.70,30.92,6.13,30.71,1015.65,2043.47,3256.97,3182.07,3443.00,349.81,322.18,30.72,0000 0000 0000 0000 000000
2013-09-28 00:51:59,0.06,0.55,0.00,24.19,28.70,30.94,6.05,30.79,1015.64,2043.46,3256.97,3182.08,3443.00,350.33,322.67,30.72,0000 0000 0000 0000 000000
2013-09-28 00:52:59,0.00,0.55,0.00,24.20,28.70,30.94,6.20,30.79,1015.65,2043.43,3256.97,3182.05,3443.00,350.84,323.14,30.73,0000 0000 0000 0000 000000
2013-09-28 00:53:59,0.00,0.55,0.00,24.20,28.70,30.93,5.90,30.75,1015.65,2043.36,3256.97,3182.03,3443.00,349.43,321.82,30.73,0000 0000 0000 0000 000000
2013-09-28 00:54:59,-0.05,0.55,0.00,24.21,28.70,30.92,5.93,30.79,1015.68,2043.31,3256.96,3182.02,3443.00,350.06,322.61,30.74,0000 0000 0000 0000 000000
2013-09-28 00:55:59,-0.04,0.55,0.00,24.21,28.70,30.94,5.97,30.92,1015.67,2043.41,3256.95,3182.02,3442.99,350.04,322.38,30.75,0000 0000 0000 0000 000000
2013-09-28 00:56:59,0.10,0.55,0.00,24.21,28.70,30.95,5.96,30.88,1015.68,2043.38,3256.91,3182.02,3442.99,349.67,322.39,30.75,0000 0000 0000 0000 000000
2013-09-28 00:58:00,-0.06,0.55,0.00,24.23,28.70,30.92,6.07,30.79,1015.66,2043.25,3256.88,3182.01,3442.99,349.88,322.21,30.76,0000 0000 0000 0000 000000
2013-09-28 00:59:00,-0.07,0.55,0.00,24.23,28.70,30.92,5.86,30.88,1015.69,2043.17,3256.82,3182.00,3442.98,349.13,321.54,30.76,0000 0000 0000 0000 000000
2013-09-28 01:00:00,-0.06,0.55,0.00,24.22,28.70,30.92,6.02,30.83,1015.67,2043.15,3256.77,3182.00,3442.98,349.91,322.25,30.77,0000 0000 0000 0000 000000
2013-09-28 01:01:00,0.00,0.55,0.00,24.23,28.71,30.92,5.98,30.83,1015.66,2043.19,3256.85,3182.00,3442.98,350.91,323.16,30.78,0000 0000 0000 0000 000000
2013-09-28 01:02:01,0.02,0.55,0.00,24.23,28.71,30.93,5.92,30.71,1015.68,2043.33,3256.91,3182.02,3442.99,349.69,322.04,30.78,0000 0000 0000 0000 000000
2013-09-28 01:03:01,0.10,0.55,0.00,24.23,28.72,30.96,5.98,30.67,1015.69,2043.39,3256.92,3182.00,3442.97,349.83,322.17,30.79,0000 0000 0000 0000 000000
2013-09-28 01:04:01,0.02,0.55,0.00,24.23,28.72,30.96,6.02,30.79,1015.70,2043.31,3256.83,3182.01,3442.97,350.27,322.59,30.79,0000 0000 0000 0000 000000
2013-09-28 01:05:01,-0.07,0.55,0.00,24.25,28.72,30.94,5.89,30.75,1015.71,2043.30,3256.77,3182.01,3442.98,349.54,321.99,30.80,0000 0000 0000 0000 000000
2013-09-28 01:06:02,0.02,0.55,0.00,24.25,28.72,30.92,5.94,30.75,1015.70,2043.24,3256.76,3182.01,3442.98,350.90,323.15,30.80,0000 0000 0000 0000 000000
2013-09-28 01:07:02,-0.01,0.55,0.00,24.28,28.72,30.96,5.95,30.63,1015.68,2043.27,3256.66,3182.00,3442.98,348.91,321.28,30.81,0000 0000 0000 0000 000000
2013-09-28 01:08:02,0.00,0.55,0.00,24.31,28.72,30.94,5.93,30.79,1015.68,2043.20,3256.35,3182.00,3442.93,349.56,321.20,30.82,0000 0000 0000 0000 000000
2013-09-28 01:09:02,0.01,0.55,0.00,24.34,28.72,30.94,5.93,30.83,1015.69,2043.11,3256.16,3182.00,3442.75,349.67,322.34,30.82,0000 0000 0000 0000 000000
2013-09-28 01:10:02,-0.01,0.55,0.00,24.35,28.72,30.95,5.81,30.79,1015.69,2043.10,3256.11,3182.00,3442.68,348.68,320.62,30.83,0000 0000 0000 0000 000000
2013-09-28 01:11:03,0.00,0.55,0.00,24.35,28.72,30.95,6.05,30.75,1015.70,2043.14,3256.10,3182.00,3442.75,350.13,322.32,30.83,0000 0000 0000 0000 000000
2013-09-28 01:12:03,0.02,0.55,0.00,24.37,28.72,30.94,5.97,30.54,1015.68,2043.13,3256.08,3182.00,3442.69,350.19,322.36,30.84,0000 0000 0000 0000 000000
2013-09-28 01:13:03,-0.01,0.55,0.00,24.37,28.72,30.96,5.91,30.83,1015.67,2043.08,3256.04,3182.00,3442.58,350.35,322.50,30.85,0000 0000 0000 0000 000000
2013-09-28 01:14:03,-0.02,0.55,0.00,24.38,28.73,30.95,6.04,30.71,1015.67,2043.08,3256.03,3181.99,3442.44,349.92,322.36,30.85,0000 0000 0000 0000 000000
2013-09-28 01:15:04,0.02,0.55,0.00,24.40,28.74,30.95,5.92,30.58,1015.66,2043.07,3256.01,3181.99,3442.32,349.79,321.95,30.86,0000 0000 0000 0000 000000
2013-09-28 01:16:04,0.02,0.55,0.00,24.42,28.74,30.93,5.91,30.75,1015.64,2043.05,3256.01,3181.99,3442.25,348.97,321.17,30.86,0000 0000 0000 0000 000000
2013-09-28 01:17:04,-0.01,0.55,0.00,24.42,28.75,30.94,6.08,30.67,1015.67,2043.06,3256.01,3181.99,3442.14,351.07,322.94,30.87,0000 0000 0000 0000 000000
2013-09-28 01:18:05,0.02,0.55,0.00,24.42,28.75,30.95,6.17,30.58,1015.65,2043.06,3256.00,3181.99,3442.09,350.61,322.68,30.87,0000 0000 0000 0000 000000
2013-09-28 01:19:05,0.02,0.55,0.00,24.42,28.75,30.97,6.03,30.83,1015.68,2043.08,3256.00,3181.99,3442.08,349.73,322.24,30.88,0000 0000 0000 0000 000000
2013-09-28 01:20:05,0.01,0.55,0.00,24.43,28.75,30.98,5.81,30.71,1015.69,2043.06,3256.00,3181.99,3442.06,348.93,321.51,30.89,0000 0000 0000 0000 000000
2013-09-28 01:21:05,-0.01,0.55,0.00,24.44,28.75,30.94,5.95,30.67,1015.67,2043.03,3256.00,3181.97,3442.03,350.35,322.42,30.89,0000 0000 0000 0000 000000
2013-09-28 01:22:06,-0.01,0.55,0.00,24.43,28.75,30.95,6.00,30.58,1015.67,2043.04,3256.00,3181.95,3442.01,350.09,321.57,30.90,0000 0000 0000 0000 000000
2013-09-28 01:23:06,0.03,0.55,0.00,24.44,28.75,30.96,5.98,30.63,1015.68,2043.06,3255.97,3181.79,3442.00,350.00,322.13,30.90,0000 0000 0000 0000 000000
2013-09-28 01:24:06,0.03,0.55,0.00,24.43,28.75,30.94,5.97,30.67,1015.67,2043.04,3255.95,3181.55,3442.00,350.04,321.80,30.91,0000 0000 0000 0000 000000
2013-09-28 01:25:06,0.05,0.55,0.00,24.42,28.75,30.97,6.14,30.67,1015.67,2043.02,3255.65,3181.28,3442.00,349.97,322.10,30.92,0000 0000 0000 0000 000000
2013-09-28 01:26:06,0.08,0.55,0.00,24.42,28.75,30.98,6.07,30.54,1015.67,2043.01,3255.30,3181.12,3441.99,349.69,321.73,30.92,0000 0000 0000 0000 000000
2013-09-28 01:27:07,0.08,0.55,0.00,24.43,28.75,30.98,6.00,30.71,1015.69,2043.01,3255.12,3181.04,3441.63,350.04,321.81,30.93,0000 0000 0000 0000 000000
2013-09-28 01:28:07,0.09,0.55,0.00,24.43,28.76,30.98,5.92,30.58,1015.67,2043.02,3254.83,3180.96,3441.24,350.28,322.34,30.93,0000 0000 0000 0000 000000
2013-09-28 01:29:07,0.11,0.55,0.00,24.44,28.76,30.98,6.03,30.54,1015.67,2043.01,3254.23,3180.47,3440.94,349.95,322.07,30.94,0000 0000 0000 0000 000000
2013-09-28 01:30:07,0.23,0.55,0.00,24.46,28.77,30.97,6.13,30.63,1015.67,2043.01,3253.52,3180.06,3440.38,349.77,321.25,30.95,0000 0000 0000 0000 000000
2013-09-28 01:31:08,0.28,0.55,0.00,24.45,28.77,30.97,5.98,30.79,1015.71,2043.01,3252.73,3179.43,3439.80,349.32,321.03,30.95,0000 0000 0000 0000 000000
2013-09-28 01:32:08,0.34,0.55,0.00,24.43,28.77,30.96,6.00,30.46,1015.68,2043.01,3251.69,3178.70,3439.04,350.64,322.71,30.96,0000 0000 0000 0000 000000
2013-09-28 01:33:08,0.42,0.56,0.00,24.41,28.77,30.98,6.13,30.75,1015.66,2043.01,3250.51,3177.89,3438.09,349.95,322.09,30.96,0000 0000 0000 0000 000000
2013-09-28 01:34:08,0.48,0.56,0.00,24.40,28.77,30.96,5.87,30.67,1015.66,2043.01,3248.94,3176.70,3436.88,349.76,321.92,30.97,0000 0000 0000 0000 000000
2013-09-28 01:35:09,0.65,0.56,0.00,24.38,28.77,30.97,5.97,30.50,1015.67,2043.00,3246.91,3175.21,3435.35,350.44,322.57,30.97,0000 0000 0000 0000 000000
2013-09-28 01:36:09,0.84,0.57,0.00,24.38,28.77,30.97,5.98,30.67,1015.66,2043.01,3244.61,3173.47,3433.56,350.18,322.32,30.98,0000 0000 0000 0000 000000
2013-09-28 01:37:09,0.96,0.57,0.00,24.40,28.77,30.98,5.94,30.63,1015.66,2043.02,3242.10,3171.62,3431.64,350.17,322.30,30.99,0000 0000 0000 0000 000000
2013-09-28 01:38:09,1.03,0.58,0.00,24.40,28.77,30.98,5.83,30.63,1015.67,2043.01,3239.37,3169.60,3429.52,349.59,321.77,30.99,0000 0000 0000 0000 000000
2013-09-28 01:39:10,1.10,0.59,0.00,24.40,28.78,30.98,6.02,30.67,1015.70,2043.00,3236.94,3167.79,3427.65,349.95,321.66,31.00,0000 0000 0000 0000 000000
2013-09-28 01:40:10,0.98,0.59,0.00,24.39,28.78,30.98,5.98,30.75,1015.69,2043.00,3235.07,3166.41,3426.15,349.69,321.87,31.00,0000 0000 0000 0000 000000
2013-09-28 01:41:10,0.75,0.60,0.00,24.37,28.79,30.97,5.90,30.83,1015.67,2043.00,3233.58,3165.24,3424.92,349.97,322.14,31.01,0000 0000 0000 0000 000000
2013-09-28 01:42:10,0.61,0.60,0.00,24.37,28.80,31.00,5.97,30.92,1015.67,2043.00,3232.56,3164.46,3424.19,349.88,322.35,31.02,0000 0000 0000 0000 000000
2013-09-28 01:43:10,0.40,0.60,0.00,24.39,28.80,30.99,5.99,30.96,1015.67,2043.00,3231.70,3163.91,3423.50,350.24,322.17,31.02,0000 0000 0000 0000 000000
2013-09-28 01:44:11,0.32,0.60,0.00,24.39,28.80,31.00,6.09,30.83,1015.69,2043.00,3231.13,3163.34,3423.13,350.10,322.25,31.03,0000 0000 0000 0000 000000
2013-09-28 01:45:11,0.25,0.61,0.00,24.39,28.80,31.01,5.88,30.54,1015.70,2043.01,3230.37,3162.91,3422.53,349.53,321.73,31.03,0000 0000 0000 0000 000000
2013-09-28 01:46:11,0.28,0.61,0.00,24.39,28.80,31.00,5.91,30.79,1015.72,2043.00,3229.48,3162.32,3421.85,350.13,322.29,31.04,0000 0000 0000 0000 000000
2013-09-28 01:47:12,0.36,0.61,0.00,24.40,28.80,31.01,5.90,30.63,1015.67,2043.00,3228.57,3161.64,3421.26,350.04,322.18,31.04,0000 0000 0000 0000 000000
2013-09-28 01:48:12,0.35,0.61,0.00,24.41,28.80,31.03,5.88,30.75,1015.69,2043.00,3227.72,3161.22,3420.58,350.05,321.76,31.05,0000 0000 0000 0000 000000
2013-09-28 01:49:12,0.29,0.61,0.00,24.41,28.80,31.00,5.83,30.54,1015.71,2043.00,3227.10,3160.75,3420.17,349.80,321.85,31.06,0000 0000 0000 0000 000000
2013-09-28 01:50:13,0.24,0.61,0.00,24.40,28.80,31.01,5.99,30.58,1015.69,2043.00,3226.31,3160.23,3419.54,349.90,322.05,31.06,0000 0000 0000 0000 000000
2013-09-28 01:51:13,0.32,0.62,0.00,24.41,28.81,30.99,5.91,30.75,1015.69,2043.00,3225.49,3159.55,3419.00,349.75,321.91,31.07,0000 0000 0000 0000 000000
2013-09-28 01:52:13,0.36,0.62,0.00,24.40,28.82,31.02,5.86,30.63,1015.73,2043.00,3224.29,3158.62,3418.00,349.50,321.70,31.07,0000 0000 0000 0000 000000
2013-09-28 01:53:13,0.58,0.62,0.00,24.40,28.82,31.02,5.94,30.79,1015.78,2043.00,3222.33,3157.08,3416.38,350.41,322.56,31.08,0000 0000 0000 0000 000000
2013-09-28 01:54:14,0.82,0.63,0.00,24.41,28.82,31.03,5.97,30.50,1015.74,2043.00,3220.54,3155.73,3414.94,349.13,321.36,31.09,0000 0000 0000 0000 000000
2013-09-28 01:55:14,0.71,0.63,0.00,24.42,28.82,31.02,5.97,30.63,1015.77,2043.00,3219.35,3154.73,3413.95,349.88,322.05,31.09,0000 0000 0000 0000 000000
2013-09-28 01:56:14,0.51,0.63,0.00,24.42,28.82,31.02,5.83,30.58,1015.75,2043.00,3218.31,3153.87,3413.06,349.49,321.68,31.10,0000 0000 0000 0000 000000
2013-09-28 01:57:14,0.42,0.64,0.00,24.43,28.82,31.05,6.08,30.71,1015.77,2042.99,3217.35,3153.16,3412.25,349.59,321.45,31.10,0000 0000 0000 0000 000000
2013-09-28 01:58:15,0.44,0.64,0.00,24.44,28.82,31.04,5.98,30.54,1015.75,2042.99,3216.01,3152.14,3411.19,350.36,322.45,31.11,0000 0000 0000 0000 000000
2013-09-28 01:59:15,0.60,0.64,0.00,24.44,28.82,31.04,6.03,30.58,1015.78,2042.99,3214.49,3150.95,3409.97,350.24,322.36,31.12,0000 0000 0000 0000 000000
2013-09-28 02:00:15,0.64,0.65,0.67,24.46,28.83,31.04,6.18,30.75,1015.82,2042.99,3212.96,3149.81,3408.76,350.78,322.82,31.12,0000 0000 0000 0000 000000
2013-09-28 02:01:15,0.61,0.65,1.00,24.47,28.84,31.05,5.96,30.50,1015.74,2042.99,3211.67,3148.78,3407.70,350.10,321.82,31.13,0000 0000 0000 0000 000000
2013-09-28 02:02:16,0.51,0.65,1.00,24.47,28.85,31.04,5.92,30.54,1015.76,2042.99,3210.70,3148.14,3406.93,350.11,322.70,31.13,0000 0000 0000 0000 000000
2013-09-28 02:03:16,0.37,0.66,1.00,24.47,28.85,31.04,5.77,30.42,1015.75,2042.99,3209.99,3147.48,3406.34,349.68,321.80,31.14,0000 0000 0000 0000 000000
2013-09-28 02:04:17,0.30,0.66,1.00,24.47,28.85,31.06,5.98,30.58,1015.72,2042.99,3209.36,3147.14,3405.97,350.60,322.93,31.14,0000 0000 0000 0000 000000
2013-09-28 02:05:17,0.21,0.66,1.00,24.46,28.85,31.04,5.98,30.46,1015.69,2042.99,3209.01,3146.84,3405.43,349.98,322.20,31.15,0000 0000 0000 0000 000000
2013-09-28 02:06:17,0.20,0.66,1.00,24.47,28.85,31.05,5.97,30.67,1015.72,2042.99,3208.44,3146.40,3405.15,349.22,321.18,31.16,0000 0000 0000 0000 000000
2013-09-28 02:07:17,0.19,0.66,1.00,24.47,28.85,31.05,6.07,30.63,1015.74,2042.97,3208.15,3146.14,3405.03,349.39,321.52,31.16,0000 0000 0000 0000 000000
2013-09-28 02:08:18,0.12,0.66,1.00,24.48,28.85,31.07,6.08,30.58,1015.72,2042.98,3207.66,3145.99,3404.59,349.75,321.82,31.17,0000 0000 0000 0000 000000
2013-09-28 02:09:18,0.16,0.66,1.00,24.50,28.86,31.09,6.09,30.54,1015.79,2042.99,3207.10,3145.45,3404.18,350.31,322.36,31.17,0000 0000 0000 0000 000000
2013-09-28 02:10:18,0.25,0.66,1.00,24.50,28.87,31.10,5.89,30.63,1015.81,2042.99,3206.42,3145.04,3403.60,349.36,321.49,31.18,0000 0000 0000 0000 000000
2013-09-28 02:11:18,0.28,0.67,1.00,24.49,28.87,31.06,5.87,30.58,1015.77,2042.99,3205.66,3144.43,3403.04,349.93,322.01,31.19,0000 0000 0000 0000 000000
2013-09-28 02:12:19,0.32,0.67,1.00,24.49,28.87,31.08,6.01,30.54,1015.76,2042.99,3204.86,3143.86,3402.39,351.29,323.26,31.19,0000 0000 0000 0000 000000
2013-09-28 02:13:19,0.35,0.67,1.00,24.48,28.87,31.07,5.87,30.54,1015.79,2042.98,3203.62,3142.89,3401.42,349.80,321.91,31.20,0000 0000 0000 0000 000000
2013-09-28 02:14:19,0.57,0.67,1.00,24.48,28.87,31.07,5.96,30.63,1015.71,2042.98,3201.47,3141.16,3399.71,350.26,322.30,31.20,0000 0000 0000 0000 000000
2013-09-28 02:15:19,0.93,0.68,1.00,24.48,28.87,31.08,6.03,30.79,1015.72,2042.96,3198.99,3139.12,3397.59,349.83,322.11,31.21,0000 0000 0000 0000 000000
2013-09-28 02:16:20,1.15,0.68,1.00,24.52,28.87,31.09,6.10,30.54,1015.73,2042.95,3195.67,3136.56,3394.85,350.95,322.68,31.21,0000 0000 0000 0000 000000
2013-09-28 02:17:20,1.42,0.69,1.00,24.51,28.89,31.10,5.95,30.63,1015.75,2042.94,3191.63,3133.51,3391.67,350.27,322.29,31.22,0000 0000 0000 0000 000000
2013-09-28 02:18:20,1.76,0.70,1.00,24.52,28.89,31.11,6.07,30.67,1015.76,2042.90,3186.65,3129.76,3387.77,350.45,322.19,31.23,0000 0000 0000 0000 000000
2013-09-28 02:19:21,2.05,0.71,1.00,24.52,28.90,31.12,6.00,30.50,1015.75,2042.78,3181.32,3125.75,3383.64,350.35,322.36,31.23,0000 0000 0000 0000 000000
2013-09-28 02:20:21,2.15,0.73,1.00,24.52,28.90,31.08,6.03,30.63,1015.76,2042.75,3176.33,3122.03,3379.77,350.05,322.34,31.24,0000 0000 0000 0000 000000
2013-09-28 02:21:21,1.92,0.75,1.00,24.51,28.90,31.11,5.88,30.63,1015.76,2042.70,3172.54,3119.22,3376.86,349.85,321.87,31.24,0000 0000 0000 0000 000000
2013-09-28 02:22:21,1.45,0.75,1.00,24.51,28.90,31.11,5.89,30.46,1015.75,2042.67,3169.50,3116.97,3374.53,349.92,321.77,31.25,0000 0000 0000 0000 000000
2013-09-28 02:23:22,1.20,0.75,1.00,24.52,28.90,31.14,5.99,30.63,1015.77,2042.71,3166.94,3115.09,3372.59,350.00,321.68,31.26,0000 0000 0000 0000 000000
2013-09-28 02:24:22,1.03,0.77,1.00,24.52,28.90,31.12,6.01,30.50,1015.79,2042.59,3164.83,3113.53,3370.93,349.83,322.02,31.26,0000 0000 0000 0000 000000
2013-09-28 02:25:22,0.76,0.77,1.00,24.52,28.91,31.12,6.01,30.58,1015.79,2042.40,3162.97,3112.16,3369.52,349.89,321.95,31.27,0000 0000 0000 0000 000000
2013-09-28 02:26:22,0.58,0.77,1.00,24.52,28.92,31.12,5.93,30.50,1015.76,2042.34,3161.60,3111.25,3368.53,349.94,321.99,31.27,0000 0000 0000 0000 000000
2013-09-28 02:27:23,0.54,0.78,1.00,24.51,28.92,31.14,5.88,30.67,1015.73,2042.38,3160.47,3110.45,3367.66,349.53,321.61,31.28,0000 0000 0000 0000 000000
2013-09-28 02:28:23,0.45,0.78,1.00,24.52,28.92,31.11,5.98,30.58,1015.78,2042.31,3159.46,3109.70,3366.89,349.95,322.00,31.29,0000 0000 0000 0000 000000
2013-09-28 02:29:23,0.36,0.78,1.00,24.52,28.92,31.13,5.90,30.58,1015.82,2042.20,3158.26,3108.84,3365.93,349.36,321.47,31.29,0000 0000 0000 0000 000000
2013-09-28 02:30:23,0.45,0.78,1.00,24.52,28.92,31.14,6.03,30.71,1015.81,2042.19,3156.87,3107.78,3364.87,349.92,322.46,31.30,0000 0000 0000 0000 000000
2013-09-28 02:31:24,0.54,0.79,1.00,24.52,28.92,31.14,5.91,30.54,1015.75,2042.14,3155.55,3106.82,3363.92,350.33,322.14,31.30,0000 0000 0000 0000 000000
2013-09-28 02:32:24,0.48,0.79,1.00,24.52,28.93,31.15,6.02,30.54,1015.77,2042.09,3154.33,3106.00,3363.00,350.77,322.22,31.31,0000 0000 0000 0000 000000
2013-09-28 02:33:24,0.43,0.79,1.00,24.54,28.93,31.17,6.00,30.54,1015.76,2042.06,3153.20,3105.26,3362.23,350.76,322.47,31.31,0000 0000 0000 0000 000000
2013-09-28 02:34:25,0.46,0.79,1.00,24.54,28.94,31.17,6.02,30.50,1015.84,2042.08,3152.18,3104.50,3361.43,349.88,322.12,31.32,0000 0000 0000 0000 000000
2013-09-28 02:35:25,0.45,0.80,1.00,24.54,28.95,31.16,5.84,30.54,1015.86,2042.04,3150.86,3103.59,3360.49,349.18,321.29,31.33,0000 0000 0000 0000 000000
2013-09-28 02:36:25,0.56,0.80,1.00,24.55,28.95,31.18,6.06,30.50,1015.90,2042.05,3148.95,3102.34,3359.15,350.85,322.86,31.33,0000 0000 0000 0000 000000